OBJECT B, 47692

Orbit data source: Space-Track

You're viewing an Uncataloged Satellite

Recently launched and/or uncataloged satellites may have evolving metadata. Metadata may include but not limited to: Owner, Maufacturer, Bus, Motor, and Mission.

OBJECT B, 47692 is a satellite owned by CNSA (CN) in LEO that was launched on Wed, 24 Feb 2021 UTC launched from the Jiuquan Satellite Launch Center, China (JSC). Unknown objects in Earth's orbit typically refer to objects detected orbiting the Earth but have not yet been identified or cataloged. These objects could be anything from previously untracked satellites, spent rocket stages, debris from satellite collisions, or even natural meteoroids temporarily captured by Earth's gravity.

Loading next visibility...
Identifier
47692, 2021-014B
Orbit
LEO
Country
Flag of CNCN / PRC
Related business
Manufacturer
Unknown
Mission
Non-operational spacecraft
Bus & Motor
Unknown
Mass
Unknown
Launch date (UTC)
2021-02-24 (5 years ago)
Launch vehicle
Unknown
Launch site
Jiuquan Satellite Launch Center, China (JSC)
Object type
Unknown
Shape & HBR
Unknown shape, 2.3 m
Radar Cross Section
Large (>1 m²)

Expand to show TLE details & history
Last TLE update: 22 hours ago

TLE from 22 hours ago
0 OBJECT B
1 47692U 21014B   26172.51483538 -.00000062  00000-0  43247-4 0  9994
2 47692  63.4034 198.9306 0171366   0.9408 359.1908 13.44224053261069
Epoch: 2026-06-21T12:21Z
TLE epoch observation values (Epoch: 2026-06-21T12:21:21.776Z)
Latitude
0.00001°
Longitude
103.87587°
Altitude
967.312 km
Speed
7.431 km/s
True Right ascension
13h 15m 43s
True Declination
0° 00' 00"
Sunlit
Object was in daylight at epoch
Visualization orbit readout
Latitude
Unknown
Longitude
Unknown
Altitude
Unknown
Speed
Unknown
Apparent Right ascension
Unknown
Apparent Declination
Unknown
Sunlit
N/A
Visualization observer readout
Local Sidereal Time
21:25:48
Azimuth
Unknown
Elevation
Unknown
Doppler factor
Unknown
Orbital elements
Apogee altitude
1,220.435 km
Perigee altitude
964.395 km
Semi-major axis
7,470.552 km
Eccentricity
0.01714
Inclination
63.4034°
RAAN
198.9306°
Arg. of periapsis
0.9408°
True anomaly
359.16246°
Mean anomaly
359.1908°
Eccentric anomaly
359.17669°
Mean motion
3.36135 °/min
Orbital period
107.1 mins
BSTAR
0.000043247
Loading maneuver chart data...
Computing Atmospheric mass density...
Loading historical data...
Loading historical data...
Loading historical data...
Loading historical data...
Loading historical data...
Loading historical data...
Loading historical data...

Documentation

Showing up to 5 results
|